This is the latest recevied weather packets stored in our database for station/object KP4CRN. If no packets are shown the sender has not sent any weather packets the latest 10 day(s).
| Time | Temp. | Humidity | Pressure | Rain* | Wind** | Luminosity | Snow |
|---|---|---|---|---|---|---|---|
| 1777591416 | 25.56° C | 98% | 1013.8 hPa | 3.05 mm | - | 0 W/m² | - |
| 1777591112 | 26.11° C | 97% | 1013.8 hPa | 4.83 mm | - | 0 W/m² | - |
| 1777590808 | 26.11° C | 96% | 1013.6 hPa | 4.32 mm | - | 0 W/m² | - |
| 1777590505 | 26.11° C | 96% | 1013.7 hPa | 1.27 mm | - | 0 W/m² | - |
| 1777590201 | 26.11° C | 95% | 1013.6 hPa | 1.78 mm | - | 0 W/m² | - |
| 1777589899 | 26.11° C | 95% | 1013.3 hPa | 1.78 mm | - | 0 W/m² | - |
| 1777589594 | 26.11° C | 95% | 1013.3 hPa | 1.27 mm | - | 0 W/m² | - |
| 1777589291 | 26.11° C | 95% | 1013.3 hPa | 1.27 mm | - | 0 W/m² | - |
| 1777588988 | 26.11° C | 95% | 1013.3 hPa | 3.05 mm | - | 0 W/m² | - |
| 1777588678 | 26.11° C | 95% | 1013.2 hPa | 3.05 mm | - | 0 W/m² | - |
| 1777588374 | 26.11° C | 96% | 1013.3 hPa | 3.05 mm | - | 1 W/m² | - |
| 1777588070 | 26.11° C | 95% | 1013.1 hPa | 3.56 mm | - | 1 W/m² | - |
| 1777587761 | 26.67° C | 95% | 1012.9 hPa | 3.05 mm | - | 2 W/m² | - |
| 1777587459 | 26.67° C | 96% | 1012.9 hPa | 1.27 mm | - | 4 W/m² | - |
| 1777587157 | 26.67° C | 95% | 1012.6 hPa | 0 mm | - | 5 W/m² | - |
| 1777586852 | 26.67° C | 95% | 1012.6 hPa | 0 mm | - | 5 W/m² | - |
| 1777586548 | 26.67° C | 94% | 1012.5 hPa | 1.78 mm | - | 6 W/m² | - |
| 1777586244 | 26.67° C | 94% | 1012.3 hPa | 1.78 mm | - | 6 W/m² | - |
| 1777585941 | 26.67° C | 94% | 1012.5 hPa | 0 mm | - | 8 W/m² | - |
| 1777585636 | 26.67° C | 94% | 1012.5 hPa | 0 mm | - | 9 W/m² | - |
| 1777585331 | 26.67° C | 94% | 1012.3 hPa | 0 mm | - | 9 W/m² | - |
| 1777585027 | 26.67° C | 94% | 1012.2 hPa | 0 mm | - | 12 W/m² | - |
| 1777584723 | 26.67° C | 94% | 1012 hPa | 1.27 mm | - | 12 W/m² | - |
| 1777584421 | 26.67° C | 93% | 1012.3 hPa | 1.27 mm | - | 10 W/m² | - |
| 1777584117 | 27.22° C | 92% | 1012.2 hPa | 1.78 mm | - | 10 W/m² | - |
* Rain latest hour (hover to see other rain measurements)
** Current wind speed in m/s (hover to see current wind gust speed)